Amritsar, India

9:31 AM IST on February 26, 2018 (GMT +0530)
Amritsar

Weather History for VIAR - October, 2012

Change the Weather History Date:

Sunday, October 7, 2012

  Actual Average Record
Temperature  
Mean Temperature 78 °F -  
Max Temperature 92 °F 89 °F 95 °F (2000)
Min Temperature 63 °F 66 °F 63 °F (2012)
Cooling Degree Days 12    
Growing Degree Days 28 (Base 50)    
Moisture  
Dew Point 69 °F    
Average Humidity 78    
Maximum Humidity 100    
Minimum Humidity 33    
Precipitation  
Precipitation 0.00 in - - ()
Sea Level Pressure  
Sea Level Pressure 29.88 in    
Wind  
Wind Speed 1 mph ()    
Max Wind Speed 8 mph    
Max Gust Speed -    
Visibility 2.3 miles    
Events      
Averages and records for this station are not official NWS values.
T = Trace of Precipitation, MM = Missing Value Source: Averaged Metar Reports

Daily Weather History Graph

Daily Weather History Graph

Search for Another Location

Airport or City:

Trip Planner

Search our weather history database for the weather conditions in past years. The results will help you decide how hot, cold, wet, or windy it might be!

Date:

Astronomy

Oct. 07, 2012 Rise Set
Actual Time 6:28 AM IST 6:07 PM IST
Civil Twilight 6:03 AM IST 6:32 PM IST
Nautical Twilight 5:35 AM IST 7:00 PM IST
Astronomical Twilight 5:07 AM IST 7:28 PM IST
Moon 11:08 PM IST (10/7) 12:30 PM IST (10/7)
Length of Visible Light 12h 28m
Length of Day
11h 39m
Waning Gibbous, 60% of the Moon is Illuminated
Oct 7
Waning Gibbous
Oct 8
Last Quarter
Oct 15
New
Oct 22
First Quarter
Oct 30
Full

Hourly Weather History & Observations

Time (IST) Temp. Heat Index Dew Point Humidity Pressure Visibility Wind Dir Wind Speed Gust Speed Precip Events Conditions
12:00 AM 75.2 °F - 71.6 °F 89% 29.86 in 2.2 mi Calm Calm - N/A   Mist
12:30 AM 73.4 °F - 71.6 °F 94% 29.86 in 2.2 mi Calm Calm - N/A   Mist
1:00 AM 73.4 °F - 71.6 °F 94% 29.86 in 2.2 mi Calm Calm - N/A   Mist
1:30 AM 73.4 °F - 71.6 °F 94% 29.86 in 2.2 mi Calm Calm - N/A   Mist
2:00 AM 73.4 °F - 71.6 °F 94% 29.86 in 2.2 mi Calm Calm - N/A   Mist
2:30 AM 73.4 °F - 71.6 °F 94% 29.86 in 2.2 mi Calm Calm - N/A   Mist
4:00 AM 69.8 °F - 69.8 °F 100% 29.86 in 2.2 mi Calm Calm - N/A   Mist
4:30 AM 68.0 °F - 68.0 °F 100% 29.86 in 2.2 mi Calm Calm - N/A   Mist
5:00 AM 68.0 °F - 68.0 °F 100% 29.86 in 1.9 mi Calm Calm - N/A   Mist
5:30 AM 67 °F - 67 °F 100% 29.86 in 1 mi Calm Calm - -   Mist
6:00 AM 68.0 °F - 68.0 °F 100% 29.89 in 1.6 mi Calm Calm - N/A   Mist
6:30 AM 68.0 °F - 68.0 °F 100% 29.89 in 1.6 mi Calm Calm - N/A   Mist
7:30 AM 68.0 °F - 68.0 °F 100% 29.89 in 1.6 mi Calm Calm - N/A   Mist
8:00 AM 69.8 °F - 69.8 °F 100% 29.89 in 1.6 mi Calm Calm - N/A   Mist
8:30 AM 72 °F - 69 °F 88% 29.89 in 1 mi Calm Calm - -   Mist
11:00 AM 82.4 °F 83.9 °F 64.4 °F 54% 29.95 in 3.1 mi West 5.8 mph - N/A   Haze
11:30 AM 85 °F - 67 °F 46% 29.91 in 2 mi West 4.6 mph - -  
11:30 AM 84.2 °F 87.3 °F 68.0 °F 58% 29.95 in 3.7 mi West 4.6 mph - N/A   Unknown
1:00 PM 89.6 °F 92.2 °F 66.2 °F 46% 29.92 in 3.7 mi NW 8.1 mph - N/A   Unknown
2:00 PM 91.4 °F 94.0 °F 66.2 °F 43% 29.89 in 3.7 mi WNW 8.1 mph - N/A   Unknown
2:30 PM 92 °F - 66 °F 33% 29.84 in 2 mi WNW 6.9 mph - -  
3:30 PM 91.4 °F 94.0 °F 66.2 °F 43% 29.89 in 3.7 mi WNW 6.9 mph - N/A   Unknown
4:30 PM 91.4 °F 95.4 °F 68.0 °F 46% 29.86 in 3.7 mi West 5.8 mph - N/A   Unknown
5:00 PM 89.6 °F 92.2 °F 66.2 °F 46% 29.86 in 3.7 mi West 5.8 mph - N/A   Unknown
7:00 PM 80.6 °F 84.6 °F 71.6 °F 74% 29.89 in 2.5 mi Calm Calm - N/A   Haze
8:30 PM 78 °F - 71 °F 73% 29.86 in 1 mi Calm Calm - -   Haze
8:30 PM 78.8 °F - 71.6 °F 78% 29.89 in 2.5 mi Calm Calm - N/A   Haze
9:00 PM 78.8 °F - 71.6 °F 78% 29.89 in 2.5 mi Calm Calm - N/A   Haze
10:30 PM 77.0 °F - 71.6 °F 83% 29.89 in 2.5 mi Calm Calm - N/A   Mist
11:30 PM 76 °F - 72 °F 84% 29.86 in 1 mi Calm Calm - -   Mist